Sioux City, IA

6:06 AM CDT on July 28, 2017 (GMT -0500)
Sioux Gateway

Weather History for KSUX - February, 2014

Change the Weather History Date:

Friday, February 7, 2014

  Actual Average Record
Temperature  
Mean Temperature 3 °F 23 °F  
Max Temperature 18 °F 33 °F 69 °F (1987)
Min Temperature -12 °F 13 °F -24 °F (1905)
Degree Days  
Heating Degree Days 62 42  
Month to date heating degree days 397 299  
Since 1 July heating degree days 4712 4475  
Cooling Degree Days 0 0  
Month to date cooling degree days 0 0  
Year to date cooling degree days 0 0  
Moisture  
Dew Point -2 °F    
Average Humidity 68    
Maximum Humidity 79    
Minimum Humidity 56    
Precipitation  
Precipitation 0.00 in 0.02 in 0.70 in (1928)
Month to date precipitation 0.08 0.14  
Year to date precipitation 0.27 0.76  
Snow  
Snow 0.00 in 0.20 in 5.00 in (1928)
Month to date snowfall 1.9 1.7  
Since 1 July snowfall 7.2 21.6  
Snow Depth 1.00 in    
Sea Level Pressure  
Sea Level Pressure 30.30 in    
Wind  
Wind Speed 9 mph (South)    
Max Wind Speed 18 mph    
Max Gust Speed 22 mph    
Visibility 10 miles    
Events      
T = Trace of Precipitation, MM = Missing Value Source: NWS Daily Summary

Daily Weather History Graph

Daily Weather History Graph

Search for Another Location

Airport or City:

Trip Planner

Search our weather history database for the weather conditions in past years. The results will help you decide how hot, cold, wet, or windy it might be!

Date:

Astronomy

Feb. 07, 2014 Rise Set
Actual Time 7:32 AM CST 5:47 PM CST
Civil Twilight 7:03 AM CST 6:16 PM CST
Nautical Twilight 6:29 AM CST 6:50 PM CST
Astronomical Twilight 5:57 AM CST 7:22 PM CST
Moon 11:58 AM CST (2/7) 1:50 AM CST (2/7)
Length of Visible Light 11h 13m
Length of Day
10h 15m
First Quarter, 59% of the Moon is Illuminated
Feb 7
First Quarter
Feb 14
Full
Feb 22
Last Quarter
Mar 1
New
Mar 8
First Quarter

Hourly Weather History & Observations

Time (CST) Temp. Windchill Dew Point Humidity Pressure Visibility Wind Dir Wind Speed Gust Speed Precip Events Conditions
12:52 AM -5.1 °F -19.1 °F -11.0 °F 76% 30.43 in 10.0 mi SW 6.9 mph - N/A   Clear
1:52 AM -4.0 °F - -9.9 °F 76% 30.41 in 10.0 mi Calm Calm - N/A   Clear
2:52 AM -9.0 °F -18.2 °F -14.1 °F 79% 30.40 in 10.0 mi ESE 3.5 mph - N/A   Clear
3:52 AM -11.0 °F -22.8 °F -16.1 °F 78% 30.38 in 10.0 mi East 4.6 mph - N/A   Clear
4:52 AM -11.0 °F -22.8 °F -16.1 °F 78% 30.38 in 10.0 mi ESE 4.6 mph - N/A   Clear
5:52 AM -9.0 °F -22.3 °F -14.1 °F 79% 30.38 in 10.0 mi South 5.8 mph - N/A   Clear
6:52 AM -11.0 °F -22.8 °F -17.0 °F 75% 30.38 in 10.0 mi ESE 4.6 mph - N/A   Clear
7:52 AM -9.0 °F -22.3 °F -15.0 °F 75% 30.38 in 10.0 mi East 5.8 mph - N/A   Clear
8:52 AM -5.1 °F -17.6 °F -11.0 °F 76% 30.38 in 10.0 mi East 5.8 mph - N/A   Clear
9:52 AM 1.0 °F -8.7 °F -5.1 °F 75% 30.39 in 10.0 mi ESE 4.6 mph - N/A   Clear
10:52 AM 12.0 °F -1.3 °F 1.9 °F 64% 30.36 in 10.0 mi SW 10.4 mph - N/A   Clear
11:52 AM 15.1 °F -1.1 °F 3.9 °F 61% 30.33 in 10.0 mi SW 17.3 mph - N/A   Clear
12:52 PM 16.0 °F 1.1 °F 3.0 °F 57% 30.30 in 10.0 mi SSW 15.0 mph - N/A   Clear
1:52 PM 18.0 °F 2.6 °F 6.1 °F 60% 30.27 in 10.0 mi SSW 17.3 mph - N/A   Clear
2:52 PM 17.1 °F 3.0 °F 5.0 °F 59% 30.25 in 10.0 mi SW 13.8 mph - N/A   Mostly Cloudy
3:52 PM 16.0 °F 2.9 °F 3.9 °F 59% 30.24 in 10.0 mi SSW 11.5 mph - N/A   Clear
4:52 PM 17.1 °F 4.3 °F 5.0 °F 59% 30.22 in 10.0 mi SSW 11.5 mph - N/A   Partly Cloudy
5:52 PM 12.0 °F -0.4 °F 3.0 °F 67% 30.23 in 10.0 mi SSW 9.2 mph - N/A   Clear
6:52 PM 9.0 °F -4.2 °F 1.0 °F 70% 30.24 in 10.0 mi South 9.2 mph - N/A   Clear
7:52 PM 12.0 °F -1.3 °F 3.0 °F 67% 30.24 in 10.0 mi South 10.4 mph - N/A   Mostly Cloudy
8:52 PM 14.0 °F -0.2 °F 6.1 °F 71% 30.22 in 10.0 mi South 12.7 mph - N/A   Overcast
9:52 PM 14.0 °F -1.4 °F 6.1 °F 71% 30.21 in 10.0 mi South 15.0 mph - N/A   Overcast
10:52 PM 14.0 °F -1.4 °F 6.1 °F 71% 30.19 in 10.0 mi South 15.0 mph - N/A   Overcast
10:59 PM 14.0 °F -0.8 °F 6.1 °F 71% 30.12 in 10.0 mi South 13.8 mph - N/A   Overcast
11:52 PM 12.9 °F -1.6 °F 6.1 °F 74% 30.18 in 10.0 mi South 12.7 mph - N/A   Overcast